SCP
0 0 0 0 0 0 0 0 0 0 0 0 0 0 0 0 0 0 0 0 0 0 0 0 0 0 0 0 0 0 0 0 0 0 0 0 0 0 0 0 0 0 0
0 0 0 0 0 0 0 0 0 0 0 0 0 0 0 0 0 0 0 0 0 0 0 0 0 0 0 0 0 0 0 0 0 0 0 0 0 0 0 0 0 0 0
0 0 0 0 0 0 0 0 0 0 0 0 0 0 0 0 0 0 0 0 0 0 0 0 0 0 0 0 0 0 0 0 0 0 0 0 0 0 0 0 0 0 0
0 0 0 0 0 0 0 0 0 0 0 0 0 0 0 0 0 0 0 0 0 0 0 0 0 0 0 0 0 0 0 0 0 0 0 0 0 0 0 0 0 0 0
0 0 0 0 0 0 0 0 0 0 0 0 0 0 0 0 0 0 0 0 0 0 0 0 0 0 0 0 0 0 0 0 0 0 0 0 0 0 0 0 0 0 0
0 0 0 0 0 0 0 0 0 0 0 0 0 0 0 0 0 0 0 0 0 0 0 0 0 0 0 0 0 0 0 0 0 0 0 0 0 0 0 0 0 0 0
0 0 0 0 0 0 0 0 0 0 0 0 0 0 0 0 0 0 0 0 0 0 0 0 0 0 0 0 0 0 0 0 0 0 0 0 0 0 0 0 0 0 0
0 0 0 0 0 0 0 0 0 0 0 0 0 0 0 0 0 0 0 0 0 0 0 0 0 0 0 0 0 0 0 0 0 0 0 0 0 0 0 0 0 0 0
0 0 0 0 0 0 0 0 0 0 0 0 0 0 0 0 0 0 0 0 0 0 0 0 0 0 0 0 0 0 0 0 0 0 0 0 0 0 0 0 0 0 0
0 0 0 0 0 0 0 0 0 0 0 0 0 0 0 0 0 0 0 0 0 0 0 0 0 0 0 0 0 0 0 0 0 0 0 0 0 0 0 0 0 0 0
0 0 0 0 0 0 0 0 0 0 0 0 0 0 0 0 0 0 0 0 0 0 0 0 0 0 0 0 0 0 0 0 0 0 0 0 0 0 0 0 0 0 0
0 0 0 0 0 0 0 0 0 0 0 0 0 0 0 0 0 0 0 0 0 0 0 0 0 0 0 0 0 0 0 0 0 0 0 0 0 0 0 0 0 0 0
0 0 0 0 0 0 0 0 0 0 0 0 0 0 0 0 0 0 0 0 0 0 0 0 0 0 0 0 0 0 0 0 0 0 0 0 0 0 0 0 0 0 0
0 0 0 0 0 0 0 0 0 0 0 0 0 0 0 0 0 0 0 0 0 0 0 0 0 0 0 0 0 0 0 0 0 0 0 0 0 0 0 0 0 0 0
0 0 0 0 0 0 0 0 0 0 0 0 0 0 0 0 0 0 0 0 0 0 0 0 0 0 0 0 0 0 0 0 0 0 0 0 0 0 0 0 0 0 0
0 0 0 0 0 0 0 0 0 0 0 0 0 0 0 0 0 0 0 0 0 0 0 0 0 0 0 0 0 0 0 0 0 0 0 0 0 0 0 0 0 0 0
0 0 0 0 0 0 0 0 0 0 0 0 0 0 0 0 0 0 0 0 0 0 0 0 0 0 0 0 0 0 0 0 0 0 0 0 0 0 0 0 0 0 0
0 0 0 0 0 0 0 0 0 0 0 0 0 0 0 0 0 0 0 0 0 0 0 0 0 0 0 0 0 0 0 0 0 0 0 0 0 0 0 0 0 0 0
0 0 0 0 0 0 0 0 0 0 0 0 0 0 0 0 0 0 0 0 0 0 0 0 0 0 0 0 0 0 0 0 0 0 0 0 0 0 0 0 0 0 0
0 0 0 0 0 0 0 0 0 0 0 0 0 0 0 0 0 0 0 0 0 0 0 0 0 0 0 0 0 0 0 0 0 0 0 0 0 0 0 0 0 0 0
0 0 0 0 0 0 0 0 0 0 0 0 0 0 0 0 0 0 0 0 0 0 0 0 0 0 0 0 0 0 0 0 0 0 0 0 0 0 0 0 0 0 0
0 0 0 0 0 0 0 0 0 0 0 0 0 0 0 0 0 0 0 0 0 0 0 0 0 0 0 0 0 0 0 0 0 0 0 0 0 0 0 0 0 0 0
0 0 0 0 0 0 0 0 0 0 0 0 0 0 0 0 0 0 0 0 0 0 0 0 0 0 0 0 0 0 0 0 0 0 0 0 0 0 0 0 0 0 0
0 0 0 0 0 0 0 0 0 0 0 0 0 0 0 0 0 0 0 0 0 0 0 0 0 0 0 0 0 0 0 0 0 0 0 0 0 0 0 0 0 0 0
0 0 0 0 0 0 0 0 0 0 0 0 0 0 0 0 0 0 0 0 0 0 0 0 0 0 0 0 0 0 0 0 0 0 0 0 0 0 0 0 0 0 0
0 0 0 0 0 0 0 0 0 0 0 0 0 0 0 0 0 0 0 0 0 0 0 0 0 0 0 0 0 0 0 0 0 0 0 0 0 0 0 0 0 0 0
Wind_Speed
1 2 3 3 4 4 4 4 4 4 5 5 6 6 6 6 5 5 6 6 6 6 6 6 6 5 4 4 3 3 4 4 5 4 3 3 3 4 3 3 4 5 7
1 2 3 3 3 4 5 4 4 5 5 6 6 6 6 6 5 5 6 7 6 6 6 6 6 6 5 4 4 4 4 4 5 5 4 4 5 4 4 4 5 6 6
2 3 3 3 4 4 4 4 5 5 5 6 6 6 6 6 6 6 6 6 6 6 6 6 6 6 5 4 5 5 4 5 4 5 5 4 4 3 3 4 5 4 6
3 4 3 3 4 4 4 4 5 5 6 6 6 6 6 6 6 5 5 5 6 6 6 6 6 6 5 5 5 5 5 5 5 5 5 4 4 3 2 3 3 3 4
3 3 3 4 4 4 4 4 5 5 7 6 6 6 6 6 4 5 6 7 6 6 6 6 7 7 7 6 6 4 4 4 4 4 4 4 3 2 2 2 3 2 2
3 4 3 4 4 4 4 4 5 5 5 5 6 6 7 6 3 3 4 7 7 7 7 7 7 8 9 10 10 8 7 6 5 4 4 4 4 3 2 2 2 2 2
3 3 3 4 4 4 6 5 5 5 5 5 6 6 5 5 4 4 5 6 8 8 8 7 8 8 5 5 7 10 10 11 9 6 6 6 5 4 3 3 3 3 3
3 3 3 4 5 4 5 5 5 5 5 5 6 6 5 5 4 5 6 7 8 8 8 8 7 6 6 5 5 5 5 6 8 8 6 6 5 4 4 4 4 3 2
3 3 4 4 5 5 5 5 5 5 5 6 6 5 5 4 4 5 5 6 6 7 7 7 6 4 4 5 5 5 5 5 6 7 7 6 6 6 5 3 3 3 2
3 3 4 4 5 6 5 5 5 5 6 6 6 5 5 4 3 5 5 5 6 6 5 4 4 3 3 4 4 5 5 4 4 4 4 5 5 6 7 6 4 4 3
3 4 4 4 5 6 4 4 5 5 6 6 6 6 4 4 4 5 5 4 5 6 6 4 2 2 2 4 5 5 5 4 4 4 4 4 4 4 5 5 5 4 4
4 4 5 5 6 6 4 5 5 5 6 6 5 5 3 2 2 3 6 7 6 6 5 4 2 2 4 5 5 6 6 5 4 4 4 4 4 4 4 4 5 4 3
4 5 5 6 5 5 5 6 5 4 4 5 4 4 4 2 0 1 4 7 7 5 5 7 7 7 7 6 9 9 7 5 5 5 5 4 3 3 3 3 3 3 2
4 5 6 6 6 5 4 5 4 3 4 4 5 5 5 3 3 3 3 4 5 5 5 6 8 9 8 8 6 6 6 6 5 5 4 3 2 2 3 3 3 3 3
5 6 7 7 6 5 5 4 4 3 3 3 4 5 5 5 3 3 4 5 5 5 6 5 5 4 4 4 4 5 5 5 5 4 4 3 3 3 3 3 3 3 3
5 5 6 6 5 5 5 4 5 6 6 7 7 6 5 4 5 6 7 7 8 6 5 5 5 4 4 3 3 3 3 3 3 3 3 3 3 3 3 3 3 3 3
5 6 6 6 5 5 5 5 4 4 8 10 10 10 10 11 10 10 9 9 9 6 4 5 5 4 3 3 3 3 3 3 3 3 3 3 3 3 3 3 4 4 4
7 7 7 6 6 6 6 5 5 5 3 3 7 12 12 12 11 11 8 6 6 4 4 4 4 3 4 3 3 3 3 2 2 3 3 3 3 3 3 3 4 5 4
7 6 5 5 6 6 6 6 6 6 4 3 2 3 9 10 10 10 6 5 6 5 3 3 3 3 3 3 3 3 3 2 3 3 3 3 3 3 3 3 4 5 5
6 10 9 7 7 7 6 6 6 5 4 4 3 2 1 3 4 4 4 4 4 4 4 3 3 3 3 3 3 3 3 3 3 3 3 3 3 3 3 4 3 4 4
7 7 9 8 8 7 6 6 6 5 5 4 3 1 1 3 4 4 3 2 3 3 3 3 3 2 2 2 2 3 4 3 2 2 2 2 2 2 2 3 3 3 4
7 7 6 7 6 6 6 5 6 6 6 5 3 2 4 4 4 3 3 2 3 2 2 3 3 2 2 2 2 2 3 2 2 2 2 3 2 3 3 3 3 3 3
7 8 8 7 6 6 6 7 6 6 6 4 3 3 3 3 3 3 3 3 2 2 2 2 3 2 2 2 2 2 2 2 2 2 3 3 3 3 3 4 4 3 4
8 9 9 8 7 7 7 6 5 6 5 4 4 3 3 2 3 3 2 2 2 2 2 2 2 2 4 3 2 2 2 3 4 3 4 4 4 4 4 4 4 5 4
8 8 8 8 7 7 6 6 5 5 5 4 3 3 3 3 3 2 1 1 2 2 2 2 2 2 3 4 3 3 3 3 3 4 4 4 5 5 5 5 4 5 4
8 8 8 7 6 6 5 5 5 5 4 3 3 3 3 3 2 2 1 2 2 1 2 2 2 2 2 2 3 3 2 3 3 4 4 4 5 5 4 4 5 5 5
Wind_Direction
322 333 325 315 320 318 306 309 319 320 315 307 304 302 298 293 291 288 282 281 280 278 279 276 271 265 258 269 268 257 249 246 258 267 270 277 270 274 268 241 229 219 213
330 322 311 317 319 317 317 323 319 313 311 309 307 304 301 300 300 296 291 292 291 289 282 279 278 275 261 255 261 265 259 252 253 263 266 270 265 260 260 252 238 229 218
351 335 328 333 326 319 317 316 311 307 306 306 305 305 305 303 299 293 289 290 291 290 290 285 279 274 268 256 255 257 261 261 252 256 260 257 259 254 258 251 236 230 233
351 331 332 328 322 319 315 314 310 308 305 302 307 306 304 303 301 308 310 302 295 293 289 283 276 269 265 259 254 247 252 258 259 260 258 256 256 249 240 247 248 226 228
327 316 323 324 318 312 312 309 305 307 309 315 313 307 305 299 323 349 327 309 312 305 294 286 280 272 262 256 260 253 257 256 258 260 259 257 256 251 234 240 250 240 221
308 310 315 312 310 312 308 307 307 308 308 308 303 305 306 312 355 341 321 313 303 296 293 290 284 266 254 242 238 239 239 243 252 260 264 258 256 255 255 246 246 240 236
284 295 303 307 308 313 317 322 318 316 313 307 302 301 300 301 291 288 289 294 289 285 283 281 282 283 282 261 237 231 234 237 234 244 256 257 256 248 244 252 245 236 242
272 294 307 310 314 317 313 317 316 309 304 298 294 293 292 295 275 269 279 279 280 279 275 270 269 276 280 279 273 258 246 240 232 232 240 246 250 249 235 235 241 247 242
282 305 317 318 318 315 313 316 312 306 302 298 294 294 294 286 258 259 272 288 284 287 285 281 277 270 271 268 265 264 263 260 255 244 231 228 228 239 239 233 228 216 219
303 316 319 316 312 306 305 307 305 301 298 300 301 299 295 295 255 247 256 284 293 299 296 286 281 274 269 266 264 265 262 265 272 258 247 238 230 231 231 223 220 217 203
307 309 307 306 296 286 289 291 291 293 297 296 295 293 284 275 244 235 242 274 297 304 305 307 316 324 272 261 259 263 264 275 277 263 248 242 234 228 222 215 211 212 207
298 297 299 299 297 304 301 290 284 285 290 289 288 292 286 258 244 225 238 251 272 292 300 303 303 262 275 272 262 258 259 267 262 261 254 243 232 223 217 207 204 207 208
286 292 294 293 285 282 281 286 285 282 292 307 314 319 320 324 179 227 254 267 267 270 290 296 286 265 267 263 253 255 251 245 245 249 249 248 235 216 203 187 187 181 189
280 286 285 280 279 279 274 280 289 304 315 319 324 324 324 330 13 9 331 301 286 284 296 292 276 260 251 259 261 241 230 235 238 246 247 244 235 220 206 184 183 176 182
274 278 281 280 281 279 276 274 279 281 273 277 305 314 321 323 355 342 319 319 325 332 320 295 282 275 256 244 244 235 230 231 232 236 243 245 234 228 218 193 185 180 191
264 273 281 284 283 284 283 281 250 247 241 235 240 259 283 282 301 304 299 294 294 300 302 286 287 286 281 272 268 264 253 249 250 245 245 244 239 228 215 198 188 188 191
260 272 279 286 292 288 286 288 286 260 237 241 244 248 251 272 286 290 292 298 292 282 267 275 279 283 285 282 276 271 267 255 247 243 244 244 242 237 218 204 197 195 199
254 260 261 269 278 285 286 285 285 286 281 261 237 237 245 254 265 273 284 301 286 252 255 272 279 284 290 286 278 274 273 269 259 254 245 237 237 236 226 215 207 198 199
255 264 265 274 279 280 283 285 285 286 286 287 282 224 231 244 254 261 262 259 276 288 285 280 276 277 285 289 284 280 274 271 266 261 256 243 234 229 229 221 213 203 200
247 254 258 269 275 278 279 283 287 289 290 288 291 298 234 245 264 262 232 247 268 281 289 289 284 284 286 287 287 288 282 270 262 257 256 252 248 245 237 233 219 202 204
261 258 237 245 257 266 272 280 286 290 291 283 280 280 257 277 285 293 290 284 288 291 292 292 289 281 275 268 274 283 284 277 268 266 269 262 260 261 262 246 233 216 208
265 269 259 254 259 265 272 277 282 284 282 284 279 238 221 255 284 288 292 295 291 285 292 294 298 297 294 291 281 278 283 294 292 282 274 272 263 255 257 257 245 225 210
258 264 268 264 265 263 259 263 269 276 278 280 285 285 250 256 275 284 288 292 295 298 292 287 294 309 324 320 318 311 313 320 312 299 284 273 269 255 242 245 250 240 220
260 262 266 268 268 269 270 269 269 274 276 274 277 280 282 273 279 285 287 291 303 313 318 316 314 324 332 331 335 10 18 353 330 313 299 280 262 255 250 243 240 236 229
262 264 267 270 270 271 274 277 277 276 277 274 284 288 294 297 293 299 316 296 298 301 301 305 313 330 340 351 352 1 11 359 341 322 299 282 271 255 247 244 239 236 230
267 268 270 272 271 271 274 275 277 279 279 276 280 288 291 290 293 309 326 318 304 303 305 300 312 332 354 8 359 360 352 336 325 309 291 276 274 268 257 245 239 235 230